Terug naar catalogus

GLOBALSTAR M061

ActiefCommunicatieLEO
NORAD 25964·PAYLOAD·🇺🇸 United States

Gelanceerd Nov 22, 1999 vanaf Baikonur Cosmodrome

Loading…

Volgende Passages (komende 24 uur)

TLE

VersSource: Space-Track

Epoch: Sep 14, 2026, 21:17 UTC

1 25964U 99062D   26257.88704102 -.00000072  00000-0  13699-3 0  9995
2 25964  51.9773  99.4896 0006835  97.1696 302.4984 11.76779918174711

Volg GLOBALSTAR M061 in realtime met AllMySat

Download on the App Store